Location: Gesvres
(49.0440°N, 2.8518°E)
Time: 16:25:39
(UTC+00:00)

Cosmos 1763 Rocket - Pass Details

Date: 28 January 2023
Orbit: 733 x 778 km, 74.0° (Epoch: 25 March)

Event Time Altitude Azimuth Distance (km) Brightness Sun altitude
Rises 18:57:23 0° 337° (NNW) 3,241 7.0 -22.6°
Reaches altitude 10° 18:59:47 10° 338° (NNW) 2,304 6.2 -23.0°
Maximum altitude 19:05:01 81° 67° (ENE) 769 3.3 -23.9°
Enters shadow 19:06:09 55° 144° (SE) 900 3.6 -24.1°
